GW6917 Weather Reports


time (UTC)temp
C
wind
direction
speed
KPH
gust
KPH
rain 1hr
cm
rain 24hr
cm
rain mn
cm
humidity
%
barometer
mb
20260508122035 14 279 8.0 19.3 0.00 0.00 0.00 63 1017.4
20260508121549 14 295 8.0 16.1 0.00 0.00 0.00 64 1017.4
20260508121035 14 291 6.4 14.5 0.00 0.00 0.00 62 1017.3
20260508120536 14 273 4.8 16.1 0.00 0.00 0.00 60 1017.3
20260508120048 14 20 6.4 16.1 0.00 0.00 0.00 60 1017.3
20260508115535 15 332 8.0 16.1 0.00 0.00 0.00 58 1017.3
20260508115036 15 306 4.8 11.3 0.00 0.00 0.00 59 1017.3
20260508114546 15 51 1.6 6.4 0.00 0.00 0.00 61 1017.2
20260508114036 15 1 1.6 4.8 0.00 0.00 0.00 62 1017.2
20260508113536 15 0 0.0 6.4 0.00 0.00 0.00 62 1017.2
20260508113108 14 135 0.0 8.0 0.00 0.00 0.00 60 1017.2
20260508112538 14 206 3.2 11.3 0.00 0.00 0.00 60 1017.2
20260508112037 14 0 1.6 11.3 0.00 0.00 0.00 61 1017.2
20260508111548 14 218 1.6 8.0 0.00 0.00 0.00 60 1017.3
20260508111033 14 220 0.0 4.8 0.00 0.00 0.00 60 1017.1
20260508110535 14 246 1.6 6.4 0.00 0.00 0.00 60 1017.2
20260508110050 14 178 1.6 9.7 0.00 0.00 0.00 62 1017.0
20260508105539 14 145 1.6 14.5 0.00 0.00 0.00 61 1017.1
20260508105034 15 296 4.8 16.1 0.00 0.00 0.00 60 1017.2
20260508104555 15 312 6.4 16.1 0.00 0.00 0.00 59 1017.2
20260508104034 15 214 3.2 14.5 0.00 0.00 0.00 60 1017.1
20260508103534 15 301 3.2 14.5 0.00 0.00 0.00 58 1017.1
20260508103055 15 237 1.6 9.7 0.00 0.00 0.00 63 1017.1
20260508102534 15 298 1.6 12.9 0.00 0.00 0.00 62 1017.1
20260508102034 14 1 3.2 12.9 0.00 0.00 0.00 63 1017.0
20260508101547 13 294 4.8 11.3 0.00 0.00 0.00 63 1017.0
20260508101035 13 285 3.2 9.7 0.00 0.00 0.00 64 1017.0
20260508100535 13 326 3.2 8.0 0.00 0.00 0.00 65 1017.0
20260508100043 13 0 1.6 8.0 0.00 0.00 0.00 65 1017.0
20260508095535 13 287 3.2 8.0 0.00 0.00 0.00 64 1017.0
20260508095035 13 354 1.6 8.0 0.00 0.00 0.00 64 1017.0
20260508094542 13 289 0.0 8.0 0.00 0.00 0.00 65 1017.0
20260508094034 14 281 1.6 6.4 0.00 0.00 0.00 63 1017.0
20260508093535 14 285 1.6 12.9 0.00 0.00 0.00 63 1017.0
20260508093050 15 216 3.2 12.9 0.00 0.00 0.00 64 1016.9
20260508092535 15 225 4.8 12.9 0.00 0.00 0.00 64 1016.9
20260508092034 15 201 3.2 12.9 0.00 0.00 0.00 63 1016.8
20260508091549 15 223 3.2 12.9 0.00 0.00 0.00 66 1016.8
20260508091034 15 191 3.2 11.3 0.00 0.00 0.00 67 1016.8
20260508090535 15 117 1.6 11.3 0.00 0.00 0.00 66 1016.8
20260508090051 15 135 4.8 11.3 0.00 0.00 0.00 68 1016.8
20260508085534 15 152 1.6 14.5 0.00 0.00 0.00 70 1016.9
20260508085034 14 184 6.4 14.5 0.00 0.00 0.00 71 1016.8
20260508084547 13 194 4.8 14.5 0.00 0.00 0.00 72 1016.8
20260508084035 13 161 4.8 14.5 0.00 0.00 0.00 72 1016.7
20260508083535 13 204 4.8 11.3 0.00 0.00 0.00 74 1016.7
20260508083043 13 187 6.4 11.3 0.00 0.00 0.00 74 1016.6
20260508082534 12 201 1.6 11.3 0.00 0.00 0.00 75 1016.7
20260508082035 12 168 4.8 11.3 0.00 0.00 0.00 76 1016.6
20260508081550 12 178 3.2 11.3 0.00 0.00 0.00 78 1016.6
20260508081035 12 170 3.2 14.5 0.00 0.00 0.00 79 1016.5
20260508080535 11 234 4.8 14.5 0.00 0.00 0.00 80 1016.6
20260508080050 11 174 8.0 14.5 0.00 0.00 0.00 81 1016.5
20260508075535 11 209 6.4 14.5 0.00 0.00 0.00 81 1016.6
20260508075034 10 193 8.0 14.5 0.00 0.00 0.00 82 1016.5
20260508074553 10 198 8.0 14.5 0.00 0.00 0.00 83 1016.5
20260508074035 10 194 6.4 12.9 0.00 0.00 0.00 84 1016.3
20260508073534 10 195 6.4 12.9 0.00 0.00 0.00 84 1016.4
20260508073048 10 209 8.0 12.9 0.00 0.00 0.00 85 1016.4
20260508072535 10 188 6.4 12.9 0.00 0.00 0.00 85 1016.4
20260508072035 9 196 6.4 12.9 0.00 0.00 0.00 86 1016.4
20260508071544 9 182 6.4 16.1 0.00 0.00 0.00 86 1016.3
20260508071033 9 196 4.8 16.1 0.00 0.00 0.00 87 1016.2
20260508070535 8 117 3.2 9.7 0.00 0.00 0.00 87 1016.2
20260508070045 8 184 3.2 9.7 0.00 0.00 0.00 87 1016.1
20260508065534 8 189 3.2 8.0 0.00 0.00 0.00 86 1016.0
20260508065034 8 149 1.6 8.0 0.00 0.00 0.00 86 1016.0
20260508064600 8 135 1.6 9.7 0.00 0.00 0.00 86 1016.0
20260508064037 8 178 1.6 9.7 0.00 0.00 0.00 87 1015.9
20260508063535 8 46 1.6 9.7 0.00 0.00 0.00 87 1015.9
20260508063050 8 209 3.2 9.7 0.00 0.00 0.00 87 1015.8
20260508062534 8 167 1.6 9.7 0.00 0.00 0.00 87 1015.8
20260508062034 8 197 0.0 6.4 0.00 0.00 0.00 88 1015.7
20260508061557 8 199 1.6 8.0 0.00 0.00 0.00 87 1015.7
20260508061035 8 209 1.6 8.0 0.00 0.00 0.00 88 1015.6
20260508060535 8 178 1.6 8.0 0.00 0.00 0.00 88 1015.5
20260508060050 8 130 3.2 9.7 0.00 0.00 0.00 88 1015.4
20260508055536 7 145 1.6 9.7 0.00 0.00 0.00 88 1015.4
20260508055036 7 197 1.6 6.4 0.00 0.00 0.00 88 1015.4
20260508054612 7 135 1.6 6.4 0.00 0.00 0.00 88 1015.3
20260508054035 7 216 1.6 8.0 0.00 0.00 0.00 89 1015.3
20260508053535 7 142 1.6 8.0 0.00 0.00 0.00 89 1015.2
20260508053045 7 223 1.6 8.0 0.00 0.00 0.00 89 1015.2
20260508052535 7 202 1.6 8.0 0.00 0.00 0.00 89 1015.1
20260508052034 7 171 1.6 6.4 0.00 0.00 0.00 89 1015.1
20260508051546 7 188 1.6 6.4 0.00 0.00 0.00 89 1015.0
20260508051035 7 178 1.6 8.0 0.00 0.00 0.00 89 1015.0
20260508050535 7 124 1.6 9.7 0.00 0.00 0.00 89 1015.1
20260508050054 7 165 3.2 12.9 0.00 0.00 0.00 89 1015.1
20260508045534 7 209 4.8 12.9 0.00 0.00 0.00 89 1015.0
20260508045034 7 192 6.4 12.9 0.00 0.00 0.00 89 1014.9
20260508044547 7 206 4.8 11.3 0.00 0.00 0.00 89 1015.0
20260508044035 7 206 4.8 11.3 0.00 0.00 0.00 89 1014.9
20260508043535 7 207 6.4 11.3 0.00 0.00 0.00 89 1014.8
20260508043054 7 186 3.2 14.5 0.00 0.00 0.00 89 1014.9
20260508042535 7 172 3.2 14.5 0.00 0.00 0.00 89 1014.8
20260508042038 6 152 3.2 11.3 0.00 0.00 0.00 89 1014.8
20260508041547 6 197 3.2 11.3 0.00 0.00 0.00 89 1014.8
20260508041035 6 171 3.2 9.7 0.00 0.00 0.00 89 1014.9
20260508040532 6 198 4.8 9.7 0.00 0.00 0.00 88 1014.8
20260508040055 6 190 1.6 6.4 0.00 0.00 0.00 88 1014.7
20260508035539 6 206 0.0 6.4 0.00 0.00 0.00 87 1014.8
20260508035036 6 0 0.0 4.8 0.00 0.00 0.00 87 1014.7
20260508034550 6 165 0.0 4.8 0.00 0.00 0.00 87 1014.8
20260508034035 6 0 0.0 4.8 0.00 0.00 0.00 86 1014.7
20260508033534 6 135 0.0 4.8 0.00 0.00 0.00 86 1014.7
20260508033050 6 0 0.0 4.8 0.00 0.00 0.00 86 1014.7
20260508032535 6 0 0.0 4.8 0.00 0.00 0.00 86 1014.6
20260508032035 6 135 0.0 4.8 0.00 0.00 0.00 87 1014.7
20260508031553 6 211 1.6 6.4 0.00 0.00 0.00 87 1014.7
20260508031034 6 135 1.6 6.4 0.00 0.00 0.00 87 1014.7
20260508030534 6 0 1.6 4.8 0.00 0.00 0.00 87 1014.8
20260508030052 6 193 1.6 4.8 0.00 0.00 0.00 87 1014.9
20260508025535 6 46 0.0 6.4 0.00 0.00 0.00 87 1014.6
20260508025037 6 0 1.6 6.4 0.00 0.00 0.00 87 1014.8
20260508024544 6 1 0.0 8.0 0.00 0.00 0.00 86 1014.6
20260508024035 6 152 1.6 8.0 0.00 0.00 0.00 86 1014.9
20260508023535 6 46 0.0 8.0 0.00 0.00 0.00 86 1014.8
20260508023051 7 0 1.6 4.8 0.00 0.00 0.00 86 1014.8
20260508022535 7 135 1.6 4.8 0.00 0.00 0.00 85 1014.8
20260508022035 7 46 0.0 4.8 0.00 0.00 0.00 85 1014.8
20260508021546 7 0 0.0 6.4 0.00 0.00 0.00 85 1014.7
20260508021035 7 0 0.0 6.4 0.00 0.00 0.00 85 1014.8
20260508020534 7 149 1.6 6.4 0.00 0.00 0.00 85 1014.9
20260508020050 7 246 0.0 4.8 0.00 0.00 0.00 85 1014.9
20260508015534 7 135 0.0 6.4 0.00 0.00 0.00 85 1014.7
20260508015035 7 72 1.6 6.4 0.00 0.00 0.00 85 1014.8
20260508014548 7 234 1.6 6.4 0.00 0.00 0.00 85 1014.8
20260508014034 7 195 1.6 6.4 0.00 0.00 0.00 85 1014.9
20260508013533 7 131 1.6 6.4 0.00 0.00 0.00 84 1014.9
20260508013047 7 0 0.0 4.8 0.00 0.00 0.00 84 1014.9
20260508012536 7 28 1.6 4.8 0.00 0.00 0.00 85 1014.9
20260508012035 8 206 1.6 6.4 0.00 0.00 0.00 85 1014.8
20260508011546 8 147 1.6 6.4 0.00 0.00 0.00 85 1014.8
20260508011036 8 124 1.6 6.4 0.00 0.00 0.00 84 1014.9
20260508010533 8 117 1.6 3.2 0.00 0.00 0.00 84 1014.9
20260508010043 8 152 0.0 4.8 0.00 0.00 0.00 84 1014.9
20260508005533 8 89 0.0 4.8 0.00 0.00 0.00 84 1014.9
20260508005037 8 178 0.0 3.2 0.00 0.00 0.00 84 1014.9
20260508004549 8 46 0.0 4.8 0.00 0.00 0.00 84 1014.8
20260508004033 8 89 0.0 6.4 0.00 0.00 0.00 84 1015.0
20260508003533 8 46 1.6 6.4 0.00 0.00 0.00 85 1014.9
20260508003048 8 89 1.6 6.4 0.00 0.00 0.00 85 1014.6
20260508002533 8 190 1.6 4.8 0.00 0.00 0.00 85 1014.7
20260508002034 8 170 1.6 4.8 0.00 0.00 0.00 85 1014.6
20260508001547 7 172 1.6 4.8 0.00 0.00 0.00 85 1014.8
20260508001033 7 0 1.6 6.4 0.00 0.00 0.00 84 1014.7
20260508000535 7 161 0.0 6.4 0.00 0.00 0.00 84 1014.8
20260508000105 7 157 0.0 4.8 0.00 0.00 0.00 84 1014.9
20260507235533 7 0 0.0 4.8 0.00 0.00 0.00 84 1014.7
20260507235032 7 152 0.0 6.4 0.00 0.00 0.00 84 1014.7
20260507234549 7 124 1.6 6.4 0.00 0.00 0.00 84 1014.8
20260507234032 7 178 0.0 6.4 0.00 0.00 0.00 84 1014.9
20260507233533 7 178 1.6 6.4 0.00 0.00 0.00 84 1014.7
20260507233049 7 162 1.6 4.8 0.00 0.00 0.00 83 1014.7
20260507232532 7 142 0.0 3.2 0.00 0.00 0.00 83 1014.7
20260507232034 7 0 0.0 3.2 0.00 0.00 0.00 83 1014.7
20260507231555 7 0 0.0 3.2 0.00 0.00 0.00 82 1014.7
20260507231033 7 0 0.0 4.8 0.00 0.00 0.00 81 1014.7
20260507230535 7 197 0.0 8.0 0.00 0.00 0.00 81 1014.8
20260507230047 7 0 1.6 8.0 0.00 0.00 0.00 81 1014.7
20260507225535 7 161 3.2 8.0 0.00 0.00 0.00 80 1014.7
20260507225032 8 188 1.6 6.4 0.00 0.00 0.00 80 1014.7
20260507224545 8 197 1.6 6.4 0.00 0.00 0.00 80 1014.6
20260507224035 8 0 0.0 6.4 0.00 0.00 0.00 80 1014.6
20260507223536 8 191 1.6 6.4 0.00 0.00 0.00 79 1014.6
20260507223043 8 178 0.0 8.0 0.00 0.00 0.00 79 1014.6
20260507222534 8 197 3.2 8.0 0.00 0.00 0.00 80 1014.5
20260507222035 8 195 4.8 8.0 0.00 0.00 0.00 79 1014.6
20260507221542 8 190 3.2 8.0 0.00 0.00 0.00 79 1014.5
20260507221034 8 185 3.2 8.0 0.00 0.00 0.00 79 1014.4
20260507220539 8 201 4.8 9.7 0.00 0.00 0.00 79 1014.4
20260507220048 9 194 4.8 9.7 0.00 0.00 0.00 78 1014.5
20260507215535 9 203 4.8 9.7 0.00 0.00 0.00 78 1014.4
20260507215035 9 193 4.8 9.7 0.00 0.00 0.00 78 1014.4
20260507214549 9 200 4.8 8.0 0.00 0.00 0.00 78 1014.4
20260507214034 9 170 4.8 8.0 0.00 0.00 0.00 78 1014.4
20260507213534 10 210 0.0 3.2 0.00 0.00 0.00 78 1014.4
20260507213047 10 0 0.0 9.7 0.00 0.00 0.00 78 1014.4
20260507212534 10 223 3.2 9.7 0.00 0.00 0.00 78 1014.5
20260507212038 10 189 4.8 9.7 0.00 0.00 0.00 78 1014.4
20260507211550 10 191 6.4 9.7 0.00 0.00 0.00 78 1014.3
20260507211033 10 192 6.4 12.9 0.00 0.00 0.00 78 1014.5
20260507210534 10 178 6.4 12.9 0.00 0.00 0.00 78 1014.5
20260507210048 10 187 6.4 12.9 0.00 0.00 0.00 77 1014.5
20260507205535 10 206 4.8 11.3 0.00 0.00 0.00 77 1014.5
20260507205033 10 191 4.8 11.3 0.00 0.00 0.00 77 1014.4
20260507204550 10 201 4.8 11.3 0.00 0.00 0.00 77 1014.4
20260507204034 10 220 4.8 11.3 0.00 0.00 0.00 77 1014.3
20260507203535 10 163 4.8 11.3 0.00 0.00 0.00 76 1014.3
20260507203052 10 164 3.2 14.5 0.00 0.00 0.00 76 1014.3
20260507202536 10 198 6.4 14.5 0.00 0.00 0.00 76 1014.2
20260507202034 10 207 8.0 12.9 0.00 0.00 0.00 76 1014.2
20260507201547 10 174 4.8 14.5 0.00 0.00 0.00 76 1014.1
20260507201034 10 210 4.8 14.5 0.00 0.00 0.00 75 1014.1
20260507200535 10 187 4.8 14.5 0.00 0.00 0.00 75 1014.1
20260507200047 10 142 4.8 12.9 0.00 0.00 0.00 75 1014.1
20260507195534 10 199 4.8 9.7 0.00 0.00 0.00 75 1014.1
20260507195034 10 165 3.2 9.7 0.00 0.00 0.00 74 1014.1
20260507194544 10 210 4.8 8.0 0.00 0.00 0.00 74 1014.1
20260507194034 10 207 1.6 11.3 0.00 0.00 0.00 74 1014.1
20260507193534 10 178 3.2 12.9 0.00 0.00 0.00 74 1014.0
20260507193054 10 195 6.4 12.9 0.00 0.00 0.00 74 1014.0
20260507192534 11 196 1.6 6.4 0.00 0.00 0.00 73 1014.0
20260507192034 11 117 0.0 11.3 0.00 0.00 0.00 73 1014.0
20260507191547 11 186 4.8 11.3 0.00 0.00 0.00 73 1013.9
20260507191036 11 186 4.8 11.3 0.00 0.00 0.00 73 1013.9
20260507190534 11 161 4.8 9.7 0.00 0.00 0.00 73 1013.9
20260507190049 11 193 3.2 9.7 0.00 0.00 0.00 73 1014.0
20260507185534 11 213 3.2 8.0 0.00 0.00 0.00 72 1013.9
20260507185034 11 152 3.2 9.7 0.00 0.00 0.00 72 1014.0
20260507184549 11 178 3.2 11.3 0.00 0.00 0.00 72 1013.9
20260507184037 11 206 3.2 12.9 0.00 0.00 0.00 72 1013.9
20260507183534 11 186 6.4 16.1 0.00 0.00 0.00 71 1013.9
20260507183045 11 213 8.0 16.1 0.00 0.00 0.00 71 1014.0
20260507182535 11 152 8.0 14.5 0.00 0.00 0.00 71 1014.0
20260507182107 11 191 8.0 19.3 0.00 0.00 0.00 71 1013.8
20260507181543 11 198 9.7 19.3 0.00 0.00 0.00 70 1013.8
20260507181034 11 178 8.0 22.5 0.00 0.00 0.00 70 1013.9
20260507180534 12 204 9.7 22.5 0.00 0.00 0.00 70 1013.9
20260507180050 12 178 11.3 24.1 0.00 0.00 0.00 69 1013.8
20260507175533 12 195 11.3 24.1 0.00 0.00 0.00 69 1013.8
20260507175034 12 209 11.3 22.5 0.00 0.00 0.00 69 1013.9
20260507174617 12 207 11.3 22.5 0.00 0.00 0.00 70 1013.8
20260507174034 12 181 9.7 22.5 0.00 0.00 0.00 69 1013.9
20260507173534 12 193 11.3 22.5 0.00 0.00 0.00 69 1013.7
20260507173048 12 196 8.0 22.5 0.00 0.00 0.00 69 1013.9
20260507172534 12 190 12.9 22.5 0.00 0.00 0.00 68 1013.9
20260507172034 12 185 9.7 19.3 0.00 0.00 0.00 68 1013.8
20260507171605 13 199 11.3 22.5 0.00 0.00 0.00 67 1013.9
20260507171034 13 194 9.7 22.5 0.00 0.00 0.00 67 1013.8
20260507170535 13 187 11.3 20.9 0.00 0.00 0.00 68 1013.8
20260507170057 13 165 9.7 19.3 0.00 0.00 0.00 68 1013.9
20260507165537 13 212 8.0 19.3 0.00 0.00 0.00 69 1013.9
20260507165031 13 193 11.3 22.5 0.00 0.00 0.00 69 1013.9
20260507164552 13 187 9.7 22.5 0.00 0.00 0.00 68 1013.9
20260507164031 13 162 11.3 19.3 0.00 0.00 0.00 69 1013.9
20260507163537 13 201 8.0 16.1 0.00 0.00 0.00 70 1013.9
20260507163048 12 199 8.0 17.7 0.00 0.00 0.00 69 1013.9
20260507162534 12 201 11.3 20.9 0.00 0.00 0.00 68 1013.9
20260507162031 12 171 11.3 20.9 0.00 0.00 0.00 68 1014.0
20260507161552 13 202 11.3 22.5 0.00 0.00 0.00 68 1013.9
20260507161033 13 206 12.9 22.5 0.00 0.00 0.00 68 1013.9
20260507160535 13 198 14.5 22.5 0.00 0.00 0.00 68 1014.0
20260507160110 13 213 9.7 22.5 0.00 0.00 0.00 68 1014.0
20260507155531 13 200 9.7 22.5 0.00 0.00 0.00 68 1014.0
20260507155032 12 165 9.7 17.7 0.00 0.00 0.00 69 1014.0
20260507154551 12 204 9.7 17.7 0.00 0.00 0.00 69 1014.0
20260507154032 12 222 8.0 17.7 0.00 0.00 0.00 69 1014.1
20260507153534 12 202 4.8 19.3 0.00 0.00 0.00 70 1014.1
20260507153044 12 202 6.4 19.3 0.00 0.00 0.00 70 1014.2
20260507152533 12 148 6.4 16.1 0.00 0.00 0.00 70 1014.1
20260507152036 12 192 4.8 16.1 0.00 0.00 0.00 70 1014.1
20260507151555 12 200 6.4 17.7 0.00 0.00 0.00 70 1014.2
20260507151035 12 189 9.7 17.7 0.00 0.00 0.00 70 1014.2
20260507150536 12 190 6.4 17.7 0.00 0.00 0.00 70 1014.2
20260507150051 12 202 8.0 17.7 0.00 0.00 0.00 69 1014.3
20260507145539 12 172 8.0 17.7 0.00 0.00 0.00 70 1014.5
20260507145032 12 223 8.0 17.7 0.00 0.00 0.00 69 1014.3
20260507144551 12 199 9.7 17.7 0.00 0.00 0.00 70 1014.4
20260507144036 12 254 6.4 19.3 0.00 0.00 0.00 69 1014.4
20260507143536 12 178 11.3 20.9 0.00 0.00 0.00 70 1014.5
20260507143052 12 234 9.7 20.9 0.00 0.00 0.00 70 1014.5
20260507142536 12 198 8.0 20.9 0.00 0.00 0.00 71 1014.6
20260507142036 12 205 8.0 20.9 0.00 0.00 0.00 71 1014.5
20260507141547 12 189 11.3 20.9 0.00 0.00 0.00 71 1014.6
20260507141036 12 193 11.3 19.3 0.00 0.00 0.00 71 1014.6
20260507140536 12 185 9.7 19.3 0.00 0.00 0.00 71 1014.7
20260507140053 12 181 11.3 19.3 0.00 0.00 0.00 70 1014.7
20260507135538 12 190 9.7 17.7 0.00 0.00 0.00 70 1014.6
20260507135037 12 189 9.7 19.3 0.00 0.00 0.00 70 1014.7
20260507134544 12 193 9.7 19.3 0.00 0.00 0.00 69 1014.5
20260507134035 12 219 9.7 17.7 0.00 0.00 0.00 69 1014.7
20260507133536 12 189 11.3 20.9 0.00 0.00 0.00 68 1014.7
20260507133057 12 217 9.7 22.5 0.00 0.00 0.00 67 1014.7
20260507132535 12 195 6.4 22.5 0.00 0.00 0.00 67 1014.7
20260507132035 12 198 11.3 22.5 0.00 0.00 0.00 67 1014.7
20260507131613 12 161 6.4 20.9 0.00 0.00 0.00 65 1014.8
20260507131038 12 200 3.2 11.3 0.00 0.00 0.00 67 1014.7
20260507130535 12 0 1.6 11.3 0.00 0.00 0.00 67 1014.6
20260507130047 12 287 3.2 8.0 0.00 0.00 0.00 68 1014.6
20260507125537 12 1 1.6 9.7 0.00 0.00 0.00 67 1014.7
20260507125035 12 18 3.2 9.7 0.00 0.00 0.00 68 1014.7
20260507124553 12 346 4.8 9.7 0.00 0.00 0.00 69 1014.7
20260507124036 12 13 4.8 9.7 0.00 0.00 0.00 68 1014.7
20260507123536 12 336 3.2 9.7 0.00 0.00 0.00 67 1014.7
20260507123047 12 1 4.8 11.3 0.00 0.00 0.00 67 1014.7
20260507122536 12 336 4.8 11.3 0.00 0.00 0.00 67 1014.5